User: anonymous   Login
Location: Heilwood
(40.6210°N, 78.9150°W)
Time: 03:36:20
(UTC-05:00)
Language:

Iridium 4 Rocket - Orbit

View from above orbital plane
View from above orbital plane
View from above satellite
View from above satellite

Ground track
Ground track

The orbit data is extracted from the following two-line orbital elements,

1 24797U 97020F   14325.65867091  .00000600  00000-0  12507-3 0  8245
2 24797 086.8943 336.9330 0226960 204.8661 294.4883 14.43299823922532
Epoch (UTC): 21 November 2014 15:48:29
Eccentricity: 0.0226960
inclination: 86.8943°
perigee height: 586 km
apogee height: 909 km
right ascension of ascending node: 336.9330°
argument of perigee: 204.8661°
revolutions per day: 14.43299823
mean anomaly at epoch: 294.4883°
orbit number at epoch: 92253

The dashed part of the orbit path shows where the satellite is in the earth's shadow,  

DLR